Location: Ammerl�gen
(47.2167°N, 9.6000°E)
Time: 12:47:48
(UTC+00:00)

Cosmos 676 Rocket - Pass Details

Date: 31 July 2021
Orbit: 755 x 783 km, 74.0° (Epoch: 26 September)

Event Time Altitude Azimuth Distance (km) Brightness Sun altitude
Exits shadow 00:57:02 22° 141° (SE) 1,653 5.5 -21.5°
Maximum altitude 00:59:17 30° 100° (E) 1,366 5.4 -21.4°
Drops below altitude 10° 01:03:53 10° 41° (NE) 2,348 7.6 -21.1°
Sets 01:06:31 0° 31° (NNE) 3,280 8.8 -20.9°
